Regional Weather Roundup
Issued by NWS

Home | Current Version | Previous Version | Text Only | Print | Product List | Glossary On
Versions: 1 2 3 4 5 6 7 8 9 10 11 12 13 14 15 16 17 18 19 20 21 22 23 24 25 26 27 28 29 30 31 32 33 34 35 36 37 38 39 40 41 42 43 44 45 46 47 48 49 50
000
ASUS43 KDTX 240201
RWRMI
MICHIGAN HOURLY REGIONAL WEATHER ROUNDUP
NATIONAL WEATHER SERVICE DETROIT/PONTIAC MI
1000 PM EDT WED APR 23 2014

NOTE: "FAIR" INDICATES FEW OR NO CLOUDS BELOW 12,000 FEET WITH NO
SIGNIFICANT WEATHER AND/OR OBSTRUCTION TO VISIBILITY.

MIZ047>049-052>055-059>063-066>070-074>076-081>083-240300-
SOUTHEAST LOWER MICHIGAN

CITY           SKY/WX    TMP DP  RH WIND       PRES   REMARKS
ADRIAN         MOCLDY    48  23  37 E7        30.11R
ALMA           CLOUDY    44  31  61 CALM      30.10R
ANN ARBOR      MOCLDY    42  18  37 CALM      30.11R
BAD AXE        CLEAR     33  19  56 CALM      30.13S
CARO           PTCLDY    44  18  35 E6        30.12R
DETROIT CITY   PTCLDY    45  27  49 E3        30.13R
DETROIT        MOCLDY    47  30  51 SE5       30.13R
FLINT          MOCLDY    47  17  30 SE5       30.11R
GROSSE ILE     PTCLDY    46  32  57 CALM      30.11R
HILLSDALE      CLOUDY    50  20  31 CALM      30.10R
HOWELL         MOCLDY    45  17  32 SE3       30.10R

CITY           SKY/WX    TMP DP  RH WIND       PRES   REMARKS
JACKSON        CLOUDY    48  20  32 CALM      30.10R
LAMBERTVILLE   MOCLDY    46  32  57 E3        30.12R
LANSING        MOCLDY    48  19  31 CALM      30.10R
LAPEER         FAIR      41  26  55 SE3       30.12R
MASON          MOCLDY    44  26  48 CALM      30.10S
MONROE         PTCLDY    45  36  70 E3        30.11R
MT. CLEMENS    PTCLDY    41  20  43 NE8       30.12R
PONTIAC        MOCLDY    45  18  34 CALM      30.10R
PORT HOPE        N/A     34  23  64 CALM      30.11S
PORT HURON     CLEAR     34  25  69 CALM      30.14R
TRI CITIES     PTCLDY    42  32  67 NE7       30.12R
TROY           PTCLDY    47  15  27 E3        30.13R
SAGINAW HB     PTCLDY    43  28  56 E6        30.11R
YPSILANTI      PTCLDY    45  22  40 SE7       30.12R
$$
MIZ043>046-050>051-056>058-064>065-071>073-077>080-240300-
SOUTHWEST LOWER MICHIGAN

CITY           SKY/WX    TMP DP  RH WIND       PRES   REMARKS
BATTLE CREEK   CLOUDY    49  30  48 NW3       30.11R
BENTON HARBOR  CLOUDY    38  25  59 CALM      30.12S
BIG RAPIDS     CLOUDY    46  13  26 N5        30.09S
COLDWATER      CLOUDY    50  20  31 CALM      30.10R
FREMONT        FAIR      43  24  48 W3        30.11R
HOLLAND        CLOUDY    45  24  43 CALM      30.12S
GRAND RAPIDS   CLOUDY    48  27  44 NW6       30.11R
IONIA          FAIR      47  28  47 NW5       30.09S
KALAMAZOO      CLOUDY    49  29  46 NW8       30.11R
LUDINGTON      CLOUDY    39  24  54 CALM      30.12S
MARSHALL       CLOUDY    45  27  49 CALM      30.09S
MOUNT PLEASANT MOCLDY    47  23  38 N7        30.10R
MUSKEGON       CLOUDY    42  29  59 CALM      30.12R
SOUTH HAVEN    CLOUDY    40  26  57 CALM      30.12S
$$
MIZ016>042-240300-
NORTHERN LOWER MICHIGAN

CITY           SKY/WX    TMP DP  RH WIND       PRES   REMARKS
ALPENA         CLEAR     40  16  37 NW5       30.12R
BEAVER ISLAND  CLOUDY    32  23  69 CALM      30.14F
BELLAIRE       CLOUDY    38  23  54 CALM      30.14R
CADILLAC       CLOUDY    38  19  46 CALM      30.10S
CHARLEVOIX     CLOUDY    35  21  57 CALM      30.17S
FRANKFORT      CLOUDY    38  22  51 CALM      30.13S
GAYLORD        PTCLDY    39  15  37 CALM      30.11R
GRAYLING       MOCLDY    36  21  54 W3        30.12R
HARBOR SPRINGS MOCLDY    30  26  83 CALM      30.14R
HOUGHTON LAKE  MOCLDY    42  19  39 N6        30.11R
MANISTEE       CLOUDY    37  25  60 E5        30.12S WCI  34
OSCODA         CLEAR     33  21  60 SW3       30.13R
PELLSTON       MOCLDY    37  23  56 CALM      30.14R
ROGERS CITY    PTCLDY    38  22  51 W5        30.14R WCI  35
TRAVERSE CITY  CLOUDY    39  22  50 CALM      30.13R
$$
MIZ007>008-015-240300-
EASTERN UPPER MICHIGAN

CITY           SKY/WX    TMP DP  RH WIND       PRES   REMARKS
KINROSS        CLEAR     36  27  69 NW6       30.12S WCI  31
MACKINAC ISLAN MOCLDY    35  22  59 NW6       30.14R WCI  29
NEWBERRY       MOCLDY    37  22  54 CALM      30.13S
S. S. MARIE    CLEAR     37  24  59 W9        30.12R WCI  30
MUNISING         N/A     35  25  66 CALM      30.12F
$$
MIZ004>006-011>014-085-240300-
CENTRAL UPPER MICHIGAN

CITY           SKY/WX    TMP DP  RH WIND       PRES   REMARKS
MANISTIQUE     CLOUDY    32  27  82 S7        30.12S WCI  26
ESCANABA       CLOUDY    37  21  52 CALM      30.12S
MENOMINEE      CLOUDY    41  14  33 S5        30.11S
SAWYER-GWINN   CLEAR     41  21  45 E5        30.10R
$$
MIZ001>003-009>011-084-240300-
WESTERN UPPER MICHIGAN

CITY           SKY/WX    TMP DP  RH WIND       PRES   REMARKS
IRON MOUNTAIN  CLOUDY    44  15  31 SE7       30.07F
HOUGHTON       CLOUDY    36  20  52 E12       30.09R WCI  28
COPPER HARBOR    N/A     37  22  54 SW9       30.08F WCI  30
IRONWOOD       CLOUDY    48  21  34 SE5       29.98R
$$

ABBREVIATIONS USED IN REMARKS
   TC - TEMPERATURE IN CELSIUS
  WCI - WIND CHILL INDEX
   HX - HEAT INDEX
  VSB - VISIBILITY




USA.gov is the U.S. government's official web portal to all federal, state and local government web resources and services.